Regional Weather Roundup
Issued by NWS

Home | Current Version | Previous Version | Graphics & Text | Print | Product List | Glossary On
Versions: 1 2 3 4 5 6 7 8 9 10 11 12 13 14 15 16 17 18 19 20 21 22 23 24 25 26 27 28 29 30 31 32 33 34 35 36 37 38 39 40 41 42 43 44 45 46 47 48 49 50
000
ASUS45 KBOI 280010
RWRID

IDAHO REGIONAL WEATHER ROUNDUP
NATIONAL WEATHER SERVICE BOISE ID
600 PM MDT MON JUL 27 2015

NOTE: "FAIR" INDICATES FEW OR NO CLOUDS BELOW 12000 FEET
WITH NO SIGNIFICANT WEATHER AND/OR OBSTRUCTIONS TO VISIBILITY

IDZ012-014-280100-
SOUTHWEST IDAHO


CITY           SKY/WX    TMP DP  RH WIND       PRES   REMARKS
BOISE          SUNNY     75  31  19 W20G25    30.06R
CALDWELL       SUNNY     77  34  20 NW17G24   30.07R
MOUNTAIN HOME  SUNNY     76  31  19 NW23G30   30.05R
$$

IDZ016-017-280100-
SOUTHCENTRAL IDAHO


CITY           SKY/WX    TMP DP  RH WIND       PRES   REMARKS
BURLEY         SUNNY     68  34  28 W15G32    30.08R
JEROME         SUNNY     69  31  24 W23G32    30.09R
TWIN FALLS     SUNNY     73  31  21 W25G31    30.07R
$$

IDZ019>023-280100-
SOUTHEAST IDAHO


CITY           SKY/WX    TMP DP  RH WIND       PRES   REMARKS
IDAHO FALLS    MOSUNNY   59  40  49 NW24G40   30.08R
POCATELLO      MOSUNNY   68  32  26 W33G43    30.07R
REXBURG        PTSUNNY   55  42  61 NW10G23   30.08R
$$

IDZ006-010-011-018-031-032-280100-
CENTRAL IDAHO MOUNTAINS


CITY           SKY/WX    TMP DP  RH WIND       PRES   REMARKS
MCCALL         PTSUNNY   60  37  42 N10G22    30.11R
STANLEY          N/A     46  38  73 W3        30.18R
SALMON         CLOUDY    54  43  66 SW9       30.09R
CHALLIS        CLOUDY    51  43  74 SW10      30.15R
$$

IDZ002-004-006-007-026-280100-
NORTHERN IDAHO


CITY           SKY/WX    TMP DP  RH WIND       PRES   REMARKS
LEWISTON       PTSUNNY   72  40  31 CALM      30.06F
LOWELL           N/A     61  55  81 VRB5      30.12R
COEUR D`ALENE  PTSUNNY   73  41  31 W12       30.02R
MULLAN PASS    CLOUDY    47  40  76 NW8       30.12R
$$



USA.gov is the U.S. government's official web portal to all federal, state and local government web resources and services.